Temp_Advection
nan nan nan nan nan nan nan nan nan nan nan nan nan nan nan nan nan nan nan nan nan nan nan nan nan nan nan nan nan nan nan nan nan nan nan nan nan nan nan nan nan nan nan nan
nan -0 -0 0 0 0 -0 -0 -0 -0 0 -0 -0 -0 -0 -0 -0 0 0 -0 -0 -1 -1 -1 -1 0 0 -1 -0 1 -1 0 -0 -1 0 0 -1 -1 -0 0 1 -1 -0 nan
nan -0 -0 -0 -0 -0 -0 -0 -0 -0 -0 -0 -0 -0 0 -0 -0 0 -0 0 -0 -0 -1 -2 -1 -0 0 0 0 -1 -0 -0 -0 0 1 0 -1 0 -0 1 -0 0 -1 nan
nan -0 -0 -0 -0 0 0 -0 -0 -0 -0 -0 -0 -0 -0 -0 -1 -0 -1 -0 -0 -0 -1 -1 -1 -0 0 0 -0 -0 -0 0 1 2 1 -1 0 0 0 -0 -0 0 -0 nan
nan -0 -0 -0 -0 -0 0 0 -1 -0 -0 -0 0 -0 0 -1 -1 -1 -1 -0 -0 -0 -1 -1 -0 -0 -0 0 0 0 0 1 1 0 -1 -1 0 -0 0 0 0 0 1 nan
nan 0 -0 -0 0 -0 0 -0 -0 -0 -0 -0 -0 -0 -0 -0 0 -0 -1 -0 -0 -0 -0 0 0 -0 -0 -0 0 -0 -0 -0 -1 -1 -1 -1 -1 -0 -0 0 0 1 1 nan
nan 0 0 -0 -0 0 -0 -0 0 -0 -0 0 -0 0 -0 0 0 -0 0 0 -0 -0 0 1 -0 0 0 -0 0 -0 -0 -1 -1 -0 -1 -0 0 -0 -0 -0 0 0 -0 nan
nan 0 -0 -0 -0 -0 -0 -0 -0 -0 -0 -0 -0 0 -0 0 0 0 0 1 0 -0 0 0 1 0 -0 0 -0 -0 -0 -0 0 0 -0 0 -1 -0 -0 -0 -0 0 0 nan
nan -0 -0 -0 -0 -0 0 -0 -0 -0 -0 -0 0 0 -0 0 -0 -0 0 1 1 0 1 -0 0 0 1 1 0 0 0 0 0 -0 -0 -0 -0 0 0 0 1 1 1 nan
nan -0 -0 0 0 0 0 -0 -0 -0 -0 -0 -0 0 -0 -0 -0 -0 0 1 1 1 0 0 0 1 1 1 0 0 0 0 -0 -0 0 0 1 0 1 0 0 0 0 nan
nan -0 0 -0 -0 -0 0 -0 -0 -0 -0 -0 -0 -0 -0 -0 -0 -0 -0 0 0 0 0 -0 -0 0 1 0 0 0 0 0 0 0 0 0 0 0 0 0 0 -0 0 nan
nan -0 -0 0 -0 -0 -0 -0 0 -0 0 -0 -0 -0 -0 -0 0 0 -0 0 0 0 0 0 -0 -0 1 0 0 -0 0 0 1 1 0 0 0 0 0 0 0 0 0 nan
nan 0 -0 -0 -0 0 -0 0 -0 0 -0 -0 -0 -0 -0 0 0 0 0 0 0 0 -0 0 0 -0 0 1 0 0 0 0 0 0 0 0 0 0 0 0 0 0 0 nan
nan -0 -1 -0 0 0 -0 0 -0 -0 -0 -0 -0 -1 0 0 0 0 0 -0 -0 0 -0 -0 -0 0 1 1 0 0 -0 -0 0 0 -0 -0 0 0 0 0 0 0 0 nan
nan 0 0 -0 0 0 -0 -0 0 -0 -0 -0 0 -0 -1 0 0 0 0 -0 -0 -0 -0 -0 0 1 1 0 0 0 0 0 0 0 0 -0 -0 0 0 0 0 0 0 nan
nan 0 0 -0 -0 0 -0 -0 0 -0 -0 -0 -0 -1 -0 0 0 0 0 0 0 -0 -0 0 0 0 0 0 0 0 0 0 0 0 -0 0 0 -0 -0 0 0 0 -0 nan
nan 0 -0 -0 -0 0 -1 -0 -0 -0 -0 -0 -0 -0 0 0 0 0 0 0 0 0 0 0 0 -0 0 -0 0 0 0 0 0 -0 -0 -0 -0 0 0 0 0 0 0 nan
nan 0 -0 -0 -0 -0 -0 -0 -0 -0 -0 -0 -0 0 0 0 0 0 0 0 0 0 -0 0 0 0 -0 -0 0 0 -0 -0 -0 0 -0 0 0 -0 -0 -0 0 0 0 nan
nan -0 -0 -0 -0 0 -0 0 0 -0 -0 0 0 0 1 1 -0 -0 0 -0 -0 -0 -0 -0 -0 0 -0 -0 0 0 -0 -0 -0 -0 -0 -0 -0 -0 0 0 0 -0 0 nan
nan -0 -0 -0 -1 -0 -0 -0 0 0 -0 0 0 0 1 -0 -1 -0 0 0 0 0 0 0 0 0 0 0 0 -0 0 0 0 -0 -0 -0 -0 -0 -0 -0 -0 -0 -0 nan
nan -0 -1 -0 -0 -0 1 -0 0 -0 -0 0 0 0 0 -0 -0 0 0 0 0 0 0 0 0 0 0 0 0 0 0 -0 -0 -0 -0 -0 -0 -0 -0 -0 -0 -0 -0 nan
nan -1 -0 -0 -0 -0 -0 0 -1 -0 0 0 0 0 -1 -1 0 -0 0 0 0 0 0 0 0 0 0 0 0 0 0 0 0 -0 -0 -0 -0 -0 -0 -0 -0 -0 -0 nan
nan -0 -0 -1 -0 -0 -1 -1 -0 0 0 0 -0 -0 0 0 -0 0 1 0 0 0 1 0 0 0 0 0 0 0 0 0 0 0 0 -0 -0 -0 -0 -0 -0 -0 -0 nan
nan 1 -0 -0 0 2 -1 -1 -1 -0 0 0 0 0 0 0 0 1 1 1 0 0 0 1 0 0 0 0 0 0 0 0 0 0 0 0 0 -0 -0 -0 -0 -0 -0 nan
nan -1 -0 -1 -0 1 -1 -2 -1 0 1 1 1 1 0 0 0 0 1 0 1 1 1 1 0 0 1 0 0 0 0 0 0 0 0 0 0 0 -0 -0 -0 -0 -0 nan
nan nan nan nan nan nan nan nan nan nan nan nan nan nan nan nan nan nan nan nan nan nan nan nan nan nan nan nan nan nan nan nan nan nan nan nan nan nan nan nan nan nan nan nan
Wind_Speed
3 5 7 8 7 8 6 6 8 14 9 9 8 15 16 9 16 19 27 28 30 33 40 40 36 30 28 28 30 37 35 35 34 33 33 38 40 37 44 46 46 47 50 48
5 7 3 8 9 8 6 10 12 9 6 10 11 13 8 5 13 20 25 28 30 35 42 38 25 23 23 27 31 34 39 38 34 37 35 33 40 42 40 43 49 52 50 50
6 7 8 5 6 6 6 10 10 9 11 5 8 6 7 12 15 24 30 31 34 35 39 38 22 14 11 19 24 29 36 41 37 36 38 30 36 36 40 46 52 53 50 49
4 3 5 7 7 4 11 7 6 6 7 1 6 1 3 16 18 21 32 35 36 37 40 38 14 10 9 11 17 22 29 38 39 36 38 35 43 39 41 46 48 49 51 48
1 4 6 7 6 7 6 7 9 7 6 5 3 3 4 14 21 24 28 35 37 38 38 37 31 13 7 10 13 18 22 27 29 32 36 39 40 41 35 41 47 47 48 48
6 5 3 4 6 2 7 3 4 3 2 3 2 2 3 10 15 20 25 33 35 39 40 38 28 14 4 7 10 16 18 21 26 30 34 40 44 40 42 41 41 45 48 48
6 1 2 3 5 2 6 2 2 3 3 2 2 3 2 8 12 15 19 31 37 39 39 40 33 29 21 5 6 7 13 19 22 29 31 37 41 40 38 38 37 43 50 47
5 1 5 7 4 4 3 3 3 2 1 2 1 1 1 3 9 15 20 27 33 39 39 37 35 33 26 18 8 9 8 8 29 23 26 36 41 42 31 34 32 45 48 50
4 2 1 0 1 2 1 1 2 2 2 4 2 2 4 3 9 15 20 23 28 33 36 34 37 34 29 22 9 11 11 14 26 25 24 23 20 28 33 25 28 33 46 47
1 5 3 0 2 2 3 2 2 1 3 2 2 3 0 5 10 12 14 19 23 28 32 33 32 34 32 24 18 20 19 9 15 23 21 22 24 24 20 16 15 27 34 36
2 2 1 3 3 3 1 1 2 1 4 3 3 2 1 3 6 9 12 16 19 21 26 30 29 31 30 29 21 25 25 22 14 21 21 21 20 20 17 11 12 16 17 31
1 2 5 2 1 1 1 1 0 2 1 2 4 2 1 1 5 6 10 12 15 17 20 23 26 26 30 29 29 23 28 29 29 18 17 14 12 10 8 12 11 11 13 17
1 1 4 2 3 2 3 2 2 3 1 4 3 1 1 2 4 4 7 10 13 15 18 20 22 23 26 30 30 34 30 30 30 31 32 26 23 19 13 10 14 20 13 14
4 1 4 3 3 1 4 4 4 3 3 3 7 10 7 3 4 5 7 7 9 12 15 17 20 21 23 25 28 25 28 28 26 26 26 24 22 20 20 15 16 16 15 12
2 3 4 10 11 7 8 9 8 7 7 5 2 7 11 9 5 3 6 6 6 8 10 13 17 19 20 22 24 24 22 22 23 23 24 22 19 19 16 14 15 14 12 10
0 2 1 4 3 8 9 12 11 12 12 14 15 16 8 7 5 5 2 3 4 4 6 9 11 14 17 19 20 21 21 20 19 20 19 17 16 15 15 13 13 11 9 7
2 1 2 3 2 4 7 8 12 6 7 6 7 4 3 5 7 8 6 6 4 3 3 5 7 9 10 12 15 16 17 17 17 17 16 16 15 13 13 12 12 11 9 7
2 2 2 3 2 3 2 2 4 11 11 13 14 12 9 9 7 9 9 10 9 5 2 2 4 4 5 7 8 10 11 11 11 11 12 12 12 12 11 9 7 6 5 4
5 2 2 3 3 7 3 5 6 7 4 13 18 15 14 8 8 18 17 15 12 9 7 4 1 1 3 4 5 8 8 8 6 6 8 8 9 8 7 5 5 4 3 1
3 4 3 0 3 4 2 5 6 4 6 9 14 9 11 9 5 4 5 13 15 13 9 6 5 3 2 1 2 5 5 5 6 7 8 8 7 5 4 4 4 3 3 3
4 3 6 6 6 8 4 10 10 2 2 9 13 11 15 9 12 4 5 9 11 12 11 10 8 6 5 5 3 1 1 1 3 5 6 6 6 6 5 5 4 3 3 4
7 7 5 4 4 8 15 10 6 1 6 9 14 16 17 21 15 15 14 11 12 13 13 12 11 9 9 8 7 5 3 1 1 2 2 3 4 5 6 6 7 7 8 8
5 7 3 8 5 2 33 6 24 7 7 12 15 17 20 20 22 22 19 18 17 16 15 15 14 12 12 11 10 8 7 4 2 1 1 2 3 4 5 6 7 8 9 9
6 8 5 3 7 17 20 33 25 20 23 19 18 17 20 24 22 23 23 24 22 21 20 19 17 16 15 14 14 13 11 8 6 5 4 3 2 3 5 6 7 8 9 11
3 10 7 9 21 18 28 30 28 27 27 29 30 29 27 25 27 25 24 24 24 22 22 21 21 20 19 18 17 16 15 13 11 9 8 7 6 7 7 8 8 9 12 12
16 15 9 11 24 16 22 19 17 18 18 19 21 26 26 28 31 29 28 26 24 23 22 23 22 21 20 21 20 18 17 16 15 14 12 10 10 10 11 10 10 11 12 12
Wind_Direction
248 271 268 311 282 276 262 263 270 278 297 283 279 303 299 330 340 338 337 332 324 318 317 312 290 275 259 242 232 224 218 218 217 218 219 221 219 212 212 216 222 221 223 223
244 274 326 301 268 263 287 287 283 292 280 296 294 298 315 41 346 344 341 335 329 327 330 335 309 288 248 234 229 222 213 210 215 219 222 224 216 219 220 220 222 223 224 224
279 321 312 294 308 279 289 304 302 291 313 271 293 248 150 6 358 349 351 343 340 338 333 339 325 305 248 227 221 220 215 214 219 221 219 223 218 215 217 213 216 221 223 225
264 326 327 317 300 272 304 7 312 293 309 328 349 268 138 359 354 354 356 347 340 340 345 349 334 293 277 253 232 224 223 223 226 223 220 216 213 206 207 209 208 215 219 226
5 298 338 345 348 309 318 279 281 294 271 283 170 248 89 4 353 351 354 343 340 347 351 358 16 12 302 256 233 223 221 222 221 220 217 215 214 210 206 203 215 220 219 225
286 289 270 324 329 30 312 255 212 224 253 231 41 240 63 11 348 344 349 344 342 350 353 7 20 22 330 286 251 235 220 220 219 217 212 212 211 212 214 213 209 217 223 228
326 25 302 320 331 218 358 300 167 169 215 58 26 249 54 5 4 5 349 340 346 353 359 9 16 19 30 282 224 227 218 218 219 223 209 210 210 209 208 211 217 223 226 230
353 84 8 6 15 313 348 337 348 2 355 20 230 355 78 28 19 14 6 347 354 358 5 14 21 26 32 58 194 283 216 229 230 212 207 207 204 195 206 213 221 220 220 224
339 258 355 73 339 305 31 44 3 308 226 268 351 175 202 242 12 14 11 356 353 358 9 11 23 28 34 57 98 99 139 194 185 205 201 190 196 194 199 202 215 215 219 227
16 295 179 295 220 127 351 13 246 237 290 283 198 270 292 344 357 0 8 0 356 358 11 18 24 29 40 57 70 79 72 137 176 187 185 191 198 201 195 192 207 218 213 218
315 279 97 211 37 8 108 89 81 270 311 310 304 105 131 350 352 352 359 358 355 358 1 20 25 34 36 47 72 72 71 77 117 159 174 183 179 184 186 188 198 202 228 230
30 286 280 353 62 290 331 65 141 278 151 339 314 310 133 34 345 340 349 350 357 4 1 11 21 26 47 51 55 66 74 77 86 121 136 143 160 181 188 208 210 215 223 231
152 217 306 212 171 173 259 184 119 127 237 223 283 48 99 257 302 332 338 344 353 359 4 11 20 23 36 51 59 59 66 74 84 85 89 96 105 118 131 173 209 214 206 200
192 237 254 282 287 302 272 237 210 223 209 181 240 292 303 263 286 324 336 336 348 356 5 8 18 22 33 44 55 62 61 64 75 83 86 86 91 94 93 108 117 112 134 152
263 246 223 264 261 240 252 260 248 220 248 228 145 254 280 290 300 325 322 327 341 352 6 9 14 22 31 41 52 59 62 65 72 75 79 82 83 87 102 111 108 111 117 131
13 280 308 273 303 236 272 266 252 249 252 257 264 274 259 280 234 235 253 308 319 334 0 7 18 26 31 37 44 51 52 55 63 65 68 73 71 81 84 89 103 112 114 133
234 245 277 268 60 317 276 240 203 212 217 227 228 240 186 224 232 243 221 211 241 290 348 4 18 27 30 32 36 46 48 51 52 58 66 72 76 81 87 89 92 98 108 120
216 207 223 289 294 245 95 144 228 229 252 231 253 249 238 254 254 256 235 220 210 214 240 358 15 19 32 41 41 42 39 44 50 58 61 66 70 69 73 82 96 109 116 139
229 264 268 285 265 309 208 204 199 201 264 212 231 252 236 235 286 272 243 227 216 214 225 233 250 40 28 34 53 56 49 49 50 59 63 62 57 59 70 79 79 69 58 30
168 245 253 308 280 260 91 155 150 134 263 193 201 218 208 181 243 255 217 219 222 225 232 231 236 225 178 131 69 60 56 55 62 66 60 54 53 52 39 26 20 5 341 325
177 204 227 219 252 272 192 145 144 217 57 178 206 217 182 198 219 220 212 224 224 225 234 238 233 228 220 211 196 164 67 34 53 58 57 54 48 42 41 41 33 15 348 336
192 179 203 187 235 273 150 126 204 166 170 199 208 219 213 227 230 237 243 243 234 231 234 238 239 239 232 221 210 210 215 197 119 97 66 37 26 26 22 12 2 359 355 351
244 218 217 217 228 73 184 220 217 224 224 226 224 234 234 238 239 240 240 239 239 243 245 242 243 243 243 240 232 227 227 224 231 240 271 337 357 9 12 11 4 356 345 335
226 196 237 258 225 236 225 239 248 249 254 261 260 250 241 238 244 245 244 243 243 243 241 242 243 245 245 243 238 232 229 227 228 234 240 247 271 305 320 326 329 328 325 328
230 163 219 254 273 265 262 250 257 265 271 268 266 259 250 246 242 245 247 246 244 244 244 241 243 246 246 241 237 233 230 230 233 237 246 253 260 266 280 295 303 304 308 316
205 226 228 248 260 254 278 280 273 268 274 285 282 273 260 253 253 251 248 249 248 244 242 242 246 250 248 239 234 234 233 233 238 242 249 254 261 277 287 294 300 304 305 310
Height
1517 1515 1508 1506 1507 1506 1508 1506 1503 1493 1494 1496 1485 1482 1475 1476 1478 1476 1473 1468 1461 1451 1439 1428 1417 1414 1416 1417 1419 1422 1427 1433 1439 1443 1446 1451 1454 1458 1463 1471 1476 1481 1486 1494
1516 1509 1507 1508 1506 1505 1502 1500 1495 1492 1492 1491 1480 1477 1470 1476 1477 1475 1470 1465 1457 1445 1432 1419 1409 1404 1403 1407 1410 1414 1419 1425 1431 1435 1441 1444 1448 1453 1458 1461 1468 1472 1479 1486
1513 1509 1509 1506 1503 1502 1498 1497 1494 1495 1490 1484 1481 1466 1470 1472 1474 1470 1466 1460 1450 1442 1429 1416 1406 1402 1399 1401 1405 1408 1413 1418 1423 1427 1434 1440 1445 1449 1452 1455 1462 1466 1473 1478
1511 1510 1508 1504 1501 1501 1497 1502 1498 1494 1489 1478 1480 1466 1467 1469 1470 1467 1463 1456 1448 1439 1426 1414 1407 1404 1402 1401 1402 1404 1409 1413 1416 1421 1426 1431 1436 1439 1443 1450 1454 1461 1466 1473
1508 1507 1506 1502 1503 1502 1499 1504 1499 1493 1488 1484 1481 1482 1466 1470 1471 1464 1462 1456 1448 1438 1428 1416 1408 1403 1401 1399 1399 1401 1403 1406 1410 1413 1419 1424 1431 1436 1441 1445 1451 1455 1461 1466
1509 1509 1507 1503 1502 1502 1500 1498 1494 1491 1485 1479 1477 1482 1465 1476 1478 1470 1468 1458 1448 1435 1425 1416 1409 1403 1399 1396 1396 1396 1398 1402 1406 1407 1412 1417 1423 1431 1436 1441 1446 1451 1455 1460
1507 1504 1505 1505 1500 1500 1498 1494 1486 1484 1481 1470 1477 1474 1476 1477 1477 1475 1469 1460 1448 1437 1428 1419 1411 1403 1397 1391 1394 1395 1398 1400 1402 1405 1408 1411 1417 1425 1431 1436 1440 1446 1449 1452
1512 1501 1504 1505 1505 1503 1500 1499 1492 1478 1472 1469 1473 1470 1472 1476 1477 1475 1472 1462 1450 1440 1432 1424 1415 1406 1398 1391 1395 1396 1397 1394 1399 1405 1405 1408 1415 1416 1427 1430 1435 1440 1443 1447
1512 1502 1504 1506 1506 1506 1497 1497 1502 1498 1498 1478 1470 1468 1470 1472 1472 1472 1469 1462 1455 1448 1436 1428 1420 1414 1404 1399 1398 1396 1393 1397 1398 1398 1403 1404 1400 1409 1423 1427 1430 1431 1435 1441
1519 1515 1503 1503 1505 1505 1501 1505 1498 1494 1484 1472 1464 1468 1464 1468 1471 1471 1468 1465 1461 1453 1444 1434 1426 1416 1411 1405 1401 1397 1395 1394 1396 1399 1403 1409 1413 1418 1423 1425 1427 1431 1434 1437
1521 1520 1501 1504 1502 1502 1499 1499 1501 1504 1492 1479 1468 1460 1467 1470 1473 1472 1471 1468 1464 1457 1450 1442 1434 1427 1419 1412 1407 1400 1399 1397 1397 1400 1405 1411 1415 1418 1421 1421 1426 1430 1433 1436
1521 1518 1510 1499 1507 1507 1505 1503 1504 1492 1496 1495 1492 1467 1471 1474 1475 1475 1472 1470 1466 1461 1455 1448 1442 1435 1427 1420 1415 1407 1405 1401 1395 1403 1406 1411 1415 1415 1416 1423 1425 1425 1431 1432
1521 1518 1504 1492 1506 1507 1502 1502 1505 1509 1506 1495 1482 1464 1473 1474 1474 1474 1473 1470 1466 1462 1457 1451 1446 1441 1434 1428 1424 1417 1413 1408 1410 1411 1409 1412 1414 1417 1420 1420 1423 1426 1427 1431
1520 1522 1512 1492 1497 1506 1502 1499 1501 1501 1493 1483 1475 1467 1465 1469 1472 1472 1472 1470 1467 1464 1459 1454 1449 1445 1440 1435 1430 1427 1424 1421 1419 1418 1418 1420 1420 1422 1422 1423 1425 1426 1428 1432
1521 1515 1513 1503 1500 1503 1500 1496 1494 1504 1487 1484 1469 1475 1463 1463 1468 1470 1470 1469 1467 1465 1462 1459 1454 1449 1444 1440 1437 1434 1432 1429 1428 1425 1424 1425 1426 1426 1427 1429 1428 1429 1432 1432
1520 1512 1521 1509 1499 1499 1495 1487 1489 1488 1486 1482 1475 1468 1461 1462 1465 1467 1468 1467 1466 1465 1462 1460 1457 1453 1450 1446 1442 1439 1437 1435 1432 1430 1429 1428 1429 1430 1431 1431 1429 1431 1432 1435
1517 1515 1513 1488 1500 1505 1491 1472 1474 1473 1473 1471 1469 1456 1459 1460 1461 1462 1464 1465 1465 1463 1461 1460 1457 1456 1453 1450 1447 1444 1441 1438 1436 1434 1434 1434 1434 1435 1434 1434 1434 1435 1436 1437
1514 1517 1514 1494 1502 1473 1464 1470 1470 1467 1463 1462 1460 1458 1459 1458 1457 1458 1459 1461 1461 1460 1460 1459 1457 1456 1454 1452 1450 1447 1445 1444 1443 1441 1439 1438 1437 1438 1437 1438 1438 1439 1439 1441
1518 1513 1505 1496 1482 1464 1462 1466 1466 1465 1451 1451 1452 1451 1455 1458 1456 1451 1451 1453 1456 1457 1457 1457 1456 1455 1454 1453 1451 1449 1448 1447 1446 1445 1444 1442 1441 1441 1441 1442 1442 1442 1442 1441
1517 1517 1511 1509 1491 1460 1448 1459 1462 1464 1450 1443 1447 1447 1450 1455 1452 1445 1446 1448 1451 1452 1453 1453 1454 1454 1454 1453 1452 1450 1450 1449 1447 1446 1444 1443 1443 1443 1443 1443 1442 1442 1443 1443
1507 1509 1500 1490 1480 1455 1450 1457 1462 1454 1438 1439 1441 1443 1446 1448 1444 1444 1445 1447 1448 1449 1450 1451 1451 1451 1452 1452 1451 1451 1450 1449 1448 1447 1446 1446 1445 1445 1445 1444 1444 1443 1442 1441
1480 1484 1484 1489 1486 1460 1449 1459 1454 1434 1435 1436 1437 1438 1439 1439 1441 1441 1441 1442 1444 1446 1447 1449 1449 1449 1449 1450 1450 1450 1450 1449 1448 1448 1447 1447 1447 1446 1445 1444 1443 1442 1441 1439
1475 1461 1456 1458 1439 1438 1438 1432 1431 1431 1431 1432 1434 1434 1434 1435 1435 1436 1438 1439 1439 1439 1441 1443 1445 1446 1446 1447 1447 1447 1447 1447 1447 1447 1446 1446 1445 1445 1444 1443 1442 1441 1440 1439
1465 1463 1457 1451 1426 1431 1433 1429 1428 1427 1426 1428 1429 1430 1430 1429 1430 1431 1432 1433 1434 1435 1435 1436 1437 1439 1441 1443 1444 1445 1445 1445 1445 1445 1445 1444 1444 1443 1443 1442 1441 1440 1440 1438
1452 1458 1447 1441 1425 1429 1423 1421 1421 1421 1421 1421 1421 1422 1423 1424 1424 1425 1425 1427 1428 1429 1431 1432 1432 1433 1435 1436 1438 1440 1441 1442 1443 1443 1443 1443 1442 1442 1441 1440 1439 1438 1437 1435
1440 1433 1436 1419 1413 1417 1414 1415 1416 1416 1416 1415 1415 1414 1415 1416 1416 1419 1420 1421 1422 1423 1424 1425 1427 1428 1429 1430 1432 1434 1436 1437 1439 1440 1440 1440 1440 1439 1438 1436 1436 1434 1433 1431